TimeEST,TemperatureF,Dew PointF,Humidity,Sea Level PressureIn,VisibilityMPH,Wind Direction,Wind SpeedMPH,Gust SpeedMPH,PrecipitationIn,Events,Conditions,WindDirDegrees,DateUTC
12:03 AM,37.4,35.6,93,29.78,2.5,NNE,34.5,42.6,0.00,Snow,Light Snow,20,2013-03-08 05:03:00
12:28 AM,37.4,35.6,93,29.78,2.5,NNE,32.2,41.4,0.01,Snow,Light Snow,20,2013-03-08 05:28:00
12:35 AM,37.4,35.6,93,29.78,2.5,NNE,34.5,42.6,0.01,Snow,Light Snow,20,2013-03-08 05:35:00
12:44 AM,37.4,35.6,93,29.78,3.0,NNE,34.5,46.0,0.01,Snow,Light Snow,30,2013-03-08 05:44:00
12:53 AM,37.0,35.1,93,29.78,2.5,NNE,38.0,48.3,0.01,Snow,Light Snow,20,2013-03-08 05:53:00
1:22 AM,37.4,35.6,93,29.78,3.0,NNE,33.4,44.9,0.01,Snow,Light Snow,20,2013-03-08 06:22:00
1:53 AM,37.0,35.1,93,29.77,4.0,NNE,33.4,42.6,0.02,Rain,Light Rain,20,2013-03-08 06:53:00
2:53 AM,36.0,34.0,93,29.76,4.0,North,28.8,40.3,0.05,Rain,Rain,10,2013-03-08 07:53:00
3:53 AM,36.0,34.0,93,29.76,4.0,North,33.4,42.6,0.05,Snow,Light Snow,10,2013-03-08 08:53:00
4:53 AM,37.0,35.1,93,29.76,5.0,NNE,28.8,42.6,0.05,Rain,Light Rain,20,2013-03-08 09:53:00
5:53 AM,36.0,34.0,93,29.75,5.0,NNE,29.9,44.9,0.03,Rain-Snow,Light Rain,20,2013-03-08 10:53:00
6:53 AM,37.0,35.1,93,29.75,3.0,NNE,34.5,44.9,0.03,Rain-Snow,Light Rain,20,2013-03-08 11:53:00
7:53 AM,37.0,35.1,93,29.76,3.0,NNE,32.2,43.7,0.03,Rain-Snow,Light Rain,20,2013-03-08 12:53:00
8:53 AM,37.9,36.0,93,29.77,3.0,NNE,31.1,41.4,0.02,Rain-Snow,Light Rain,20,2013-03-08 13:53:00
9:53 AM,37.0,35.1,93,29.78,3.0,NNE,28.8,43.7,0.04,Rain,Light Rain,20,2013-03-08 14:53:00
10:53 AM,37.9,36.0,93,29.79,3.0,NNE,29.9,43.7,0.05,Rain,Light Rain,20,2013-03-08 15:53:00
11:01 AM,37.4,35.6,93,29.79,2.5,NNE,32.2,46.0,0.01,Snow,Light Snow,20,2013-03-08 16:01:00
11:19 AM,37.4,35.6,93,29.80,2.5,NNE,29.9,44.9,0.01,Snow,Light Snow,20,2013-03-08 16:19:00
11:26 AM,37.4,35.6,93,29.80,2.0,NNE,34.5,42.6,0.02,Snow,Light Snow,20,2013-03-08 16:26:00
11:38 AM,37.4,35.6,93,29.80,3.0,NNE,31.1,41.4,0.02,Rain,Light Rain,20,2013-03-08 16:38:00
11:53 AM,37.9,36.0,93,29.80,3.0,NNE,33.4,43.7,0.03,Rain,Light Rain,30,2013-03-08 16:53:00
12:53 PM,37.9,36.0,93,29.79,3.0,NNE,32.2,43.7,0.05,Rain,Light Rain,20,2013-03-08 17:53:00
1:00 PM,37.4,35.6,93,29.79,3.0,NNE,29.9,41.4,0.01,Rain,Light Rain,20,2013-03-08 18:00:00
1:53 PM,37.9,36.0,93,29.81,2.0,NNE,29.9,47.2,0.05,Snow,Light Snow,20,2013-03-08 18:53:00
2:27 PM,37.4,35.6,93,29.82,1.8,NNE,34.5,46.0,0.03,Rain,Light Rain,20,2013-03-08 19:27:00
2:53 PM,37.0,35.1,93,29.83,3.0,NNE,32.2,44.9,0.05,Rain,Light Rain,20,2013-03-08 19:53:00
3:51 PM,37.4,35.6,93,29.84,1.8,NNE,33.4,46.0,0.03,Snow,Light Snow,20,2013-03-08 20:51:00
3:53 PM,37.9,36.0,93,29.84,1.8,NNE,33.4,46.0,0.03,Snow,Light Snow,20,2013-03-08 20:53:00
4:53 PM,37.9,36.0,93,29.88,2.0,NNE,33.4,46.0,0.03,Rain,Light Rain,20,2013-03-08 21:53:00
5:53 PM,39.0,36.0,89,29.90,3.0,NNE,33.4,48.3,0.02,Rain,Light Rain,20,2013-03-08 22:53:00
6:53 PM,41.0,34.0,76,29.91,8.0,NNE,29.9,44.9,0.00,,Overcast,20,2013-03-08 23:53:00
7:53 PM,41.0,33.1,73,29.93,9.0,NNE,33.4,49.5,N/A,,Overcast,20,2013-03-09 00:53:00
8:53 PM,42.1,32.0,67,29.95,9.0,NNE,28.8,46.0,N/A,,Overcast,20,2013-03-09 01:53:00
9:53 PM,41.0,33.1,73,29.96,9.0,NNE,28.8,40.3,N/A,,Overcast,20,2013-03-09 02:53:00
10:53 PM,41.0,32.0,70,29.98,10.0,North,26.5,40.3,N/A,,Overcast,10,2013-03-09 03:53:00
11:53 PM,39.9,30.9,70,29.99,10.0,NNE,31.1,39.1,N/A,,Overcast,20,2013-03-09 04:53:00